Plymouth, MA

5:15 PM EST on November 19, 2017 (GMT -0500)
Plymouth Municipal

Weather History for KPYM - March, 2013

Change the Weather History Date:

Tuesday, March 19, 2013

  Actual Average Record
Temperature  
Mean Temperature 36 °F -  
Max Temperature 41 °F 44 °F 79 °F (2012)
Min Temperature 30 °F 25 °F -5 °F (1967)
Degree Days  
Heating Degree Days 30    
Moisture  
Dew Point 32 °F    
Average Humidity 87    
Maximum Humidity 93    
Minimum Humidity 75    
Precipitation  
Precipitation 0.69 in - - ()
Sea Level Pressure  
Sea Level Pressure 29.81 in    
Wind  
Wind Speed 12 mph (ENE)    
Max Wind Speed 20 mph    
Max Gust Speed 30 mph    
Visibility 3 miles    
Events Fog , Rain , Snow    
Averages and records for this station are not official NWS values.
T = Trace of Precipitation, MM = Missing Value Source: NWS Daily Summary

Daily Weather History Graph

Daily Weather History Graph

Search for Another Location

Airport or City:

Trip Planner

Search our weather history database for the weather conditions in past years. The results will help you decide how hot, cold, wet, or windy it might be!

Date:

Astronomy

Mar. 19, 2013 Rise Set
Actual Time 6:47 AM EDT 6:54 PM EDT
Civil Twilight 6:19 AM EDT 7:22 PM EDT
Nautical Twilight 5:47 AM EDT 7:54 PM EDT
Astronomical Twilight 5:14 AM EDT 8:27 PM EDT
Moon 11:29 AM EDT 1:43 AM EDT
Length of Visible Light 13h 02m
Length of Day
12h 06m
Waxing Crescent, 49% of the Moon is Illuminated
Mar 19
Waxing Crescent
Mar 19
First Quarter
Mar 27
Full
Apr 3
Last Quarter
Apr 10
New

Hourly Weather History & Observations

Time (EDT) Temp. Windchill Dew Point Humidity Pressure Visibility Wind Dir Wind Speed Gust Speed Precip Events Conditions
12:06 AM 30.2 °F 24.3 °F 26.6 °F 86% 30.24 in 1.0 mi East 5.8 mph - 0.01 in Snow Light Snow
12:11 AM 30.2 °F 24.3 °F 26.6 °F 86% 30.23 in 0.8 mi East 5.8 mph - 0.01 in Snow Light Snow
12:18 AM 30.2 °F 23.4 °F 26.6 °F 86% 30.23 in 1.0 mi East 6.9 mph - 0.02 in Snow Light Snow
1:02 AM 30.2 °F 21.3 °F 26.6 °F 86% 30.19 in 1.0 mi East 10.4 mph - 0.00 in Snow Light Snow
1:52 AM 30.0 °F 20.0 °F 27.0 °F 88% 30.14 in 1.0 mi East 12.7 mph 19.6 mph 0.01 in Snow Light Snow
2:52 AM 30.9 °F 19.8 °F 27.0 °F 85% 30.10 in 1.2 mi East 16.1 mph - 0.03 in Snow Light Snow
3:06 AM 30.2 °F 18.5 °F 26.6 °F 86% 30.08 in 1.5 mi East 17.3 mph 25.3 mph 0.02 in Snow Light Snow
3:13 AM 30.2 °F 19.3 °F 26.6 °F 86% 30.08 in 1.5 mi East 15.0 mph 27.6 mph 0.04 in Snow Light Snow
3:31 AM 30.2 °F 20.8 °F 26.6 °F 86% 30.06 in 2.0 mi East 11.5 mph 25.3 mph 0.07 in Snow Light Snow
3:42 AM 32.0 °F 22.1 °F 26.6 °F 80% 30.06 in 5.0 mi East 13.8 mph 24.2 mph 0.08 in Snow Light Snow
3:49 AM 32.0 °F 21.6 °F 26.6 °F 80% 30.06 in 6.0 mi East 15.0 mph 19.6 mph 0.08 in Snow Light Snow
3:52 AM 32.0 °F 22.5 °F 27.0 °F 82% 30.07 in 5.0 mi East 12.7 mph 19.6 mph 0.09 in Snow Light Snow
4:52 AM 33.1 °F 22.6 °F 28.0 °F 82% 30.03 in 4.0 mi East 16.1 mph 23.0 mph 0.05 in Snow Light Snow
5:11 AM 33.8 °F 23.2 °F 26.6 °F 75% 30.02 in 5.0 mi East 17.3 mph 26.5 mph 0.02 in Rain Light Rain
5:52 AM 33.1 °F 23.0 °F 28.0 °F 82% 30.02 in 5.0 mi East 15.0 mph 24.2 mph 0.06 in Rain Light Rain
6:20 AM 33.8 °F 25.3 °F 28.4 °F 81% 30.01 in 2.0 mi East 11.5 mph 19.6 mph 0.03 in Snow Light Snow
6:29 AM 33.8 °F 24.8 °F 28.4 °F 81% 30.01 in 1.8 mi East 12.7 mph 27.6 mph 0.03 in Snow Light Snow
6:35 AM 33.8 °F 23.9 °F 28.4 °F 81% 30.01 in 2.0 mi East 15.0 mph - 0.04 in Snow Light Snow
6:52 AM 33.1 °F 23.0 °F 28.9 °F 85% 30.01 in 2.0 mi East 15.0 mph 23.0 mph 0.05 in Snow Light Snow
7:11 AM 33.8 °F 22.8 °F 28.4 °F 81% 29.99 in 1.2 mi East 18.4 mph 25.3 mph 0.00 in Snow Light Snow
7:22 AM 33.8 °F 23.5 °F 30.2 °F 87% 29.98 in 0.5 mi East 16.1 mph 25.3 mph 0.01 in Fog , Snow Light Snow
7:42 AM 33.8 °F 24.3 °F 30.2 °F 87% 29.96 in 1.0 mi East 13.8 mph 25.3 mph 0.02 in Snow Light Snow
7:52 AM 34.0 °F 23.4 °F 30.0 °F 85% 29.96 in 1.5 mi East 17.3 mph 25.3 mph 0.02 in Snow Light Snow
8:10 AM 33.8 °F 23.9 °F 30.2 °F 87% 29.94 in 3.0 mi East 15.0 mph 23.0 mph 0.02 in Rain Light Rain
8:33 AM 33.8 °F 22.8 °F 30.2 °F 87% 29.93 in 2.5 mi East 18.4 mph 27.6 mph 0.04 in Rain Light Rain
8:45 AM 33.8 °F 23.5 °F 30.2 °F 87% 29.92 in 3.0 mi East 16.1 mph 24.2 mph 0.05 in Rain Light Rain
8:52 AM 35.1 °F 24.5 °F 30.9 °F 85% 29.93 in 3.0 mi East 18.4 mph 25.3 mph 0.05 in Rain Light Rain
9:52 AM 36.0 °F 25.6 °F 32.0 °F 86% 29.88 in 3.0 mi East 18.4 mph 29.9 mph 0.03 in Rain Light Rain
10:09 AM 35.6 °F 25.2 °F 32.0 °F 87% 29.86 in 2.5 mi East 18.4 mph 28.8 mph 0.02 in Rain Light Rain
10:52 AM 37.0 °F 27.7 °F 33.1 °F 86% 29.84 in 2.0 mi East 16.1 mph 28.8 mph 0.07 in Rain Light Rain
11:31 AM 37.4 °F 27.8 °F 33.8 °F 87% 29.80 in 3.0 mi ENE 17.3 mph 24.2 mph 0.05 in Rain Light Rain
11:52 AM 37.0 °F 27.4 °F 34.0 °F 89% 29.79 in 2.5 mi East 17.3 mph 29.9 mph 0.08 in Rain Rain
12:11 PM 37.4 °F 28.5 °F 33.8 °F 87% 29.77 in 4.0 mi ENE 15.0 mph 26.5 mph 0.02 in Rain Light Rain
12:50 PM 37.4 °F 29.8 °F 35.6 °F 93% 29.73 in 2.5 mi ENE 11.5 mph 26.5 mph 0.03 in Rain Light Rain
12:52 PM 37.9 °F 29.6 °F 35.1 °F 89% 29.73 in 2.5 mi ENE 13.8 mph 25.3 mph 0.03 in Rain Light Rain
1:52 PM 39.0 °F 29.9 °F 36.0 °F 89% 29.67 in 2.5 mi East 17.3 mph 26.5 mph 0.03 in Rain Light Rain
2:17 PM 39.2 °F 30.8 °F 35.6 °F 87% 29.63 in 3.0 mi ENE 15.0 mph 26.5 mph 0.00 in Rain Light Rain
2:42 PM 39.2 °F 30.2 °F 37.4 °F 93% 29.60 in 2.0 mi East 17.3 mph 24.2 mph 0.01 in Rain Light Rain
2:52 PM 39.9 °F 33.4 °F 37.0 °F 89% 29.60 in 2.0 mi East 10.4 mph 20.7 mph 0.01 in Rain Light Rain
3:28 PM 41.0 °F 35.8 °F 37.4 °F 87% 29.59 in 1.8 mi ENE 8.1 mph - 0.02 in Rain Light Rain
3:36 PM 41.0 °F 36.4 °F 37.4 °F 87% 29.58 in 2.0 mi ENE 6.9 mph - 0.03 in Rain Light Rain
3:52 PM 41.0 °F 36.4 °F 37.9 °F 89% 29.57 in 3.0 mi NE 6.9 mph - 0.05 in Rain Light Rain
4:08 PM 39.2 °F 33.6 °F 37.4 °F 93% 29.57 in 2.0 mi North 8.1 mph - 0.00 in   Overcast
4:19 PM 39.2 °F 33.0 °F 37.4 °F 93% 29.57 in 1.2 mi NNW 9.2 mph - 0.01 in Rain Light Rain
4:34 PM 39.2 °F 32.0 °F 37.4 °F 93% 29.56 in 2.0 mi North 11.5 mph - 0.01 in Rain Light Rain
4:47 PM 39.2 °F 31.6 °F 35.6 °F 87% 29.53 in 1.8 mi NNE 12.7 mph - 0.01 in Rain Light Rain
4:52 PM 39.0 °F 31.4 °F 36.0 °F 89% 29.55 in 1.8 mi North 12.7 mph 20.7 mph 0.01 in Rain Light Rain
5:01 PM 39.2 °F 30.5 °F 35.6 °F 87% 29.52 in 2.5 mi NE 16.1 mph 20.7 mph 0.01 in Rain Light Rain
5:12 PM 39.2 °F 31.2 °F 35.6 °F 87% 29.51 in 5.0 mi NNE 13.8 mph - 0.01 in Rain Light Rain
5:52 PM 39.0 °F 31.8 °F 36.0 °F 89% 29.52 in 4.0 mi North 11.5 mph - 0.01 in   Overcast
6:24 PM 39.2 °F 32.5 °F 37.4 °F 93% 29.51 in 2.5 mi North 10.4 mph - N/A   Overcast
6:52 PM 39.0 °F 32.3 °F 36.0 °F 89% 29.54 in 2.0 mi NW 10.4 mph - N/A   Overcast
7:33 PM 37.4 °F 30.3 °F 35.6 °F 93% 29.55 in 4.0 mi NW 10.4 mph - N/A   Overcast
7:52 PM 37.0 °F 29.3 °F 34.0 °F 89% 29.55 in 4.0 mi NW 11.5 mph 19.6 mph N/A   Overcast
8:15 PM 37.4 °F 29.3 °F 33.8 °F 87% 29.56 in 2.5 mi NW 12.7 mph - N/A   Overcast
8:31 PM 35.6 °F 27.1 °F 33.8 °F 93% 29.56 in 3.0 mi WNW 12.7 mph - N/A   Overcast
8:52 PM 36.0 °F 27.5 °F 33.1 °F 89% 29.58 in 5.0 mi WNW 12.7 mph - N/A   Overcast
9:52 PM 34.0 °F 24.2 °F 30.0 °F 85% 29.61 in 2.5 mi WNW 15.0 mph 25.3 mph 0.01 in Snow Light Snow
10:02 PM 33.8 °F 23.2 °F 30.2 °F 87% 29.63 in 5.0 mi WNW 17.3 mph - 0.00 in Snow Light Snow
10:09 PM 33.8 °F 23.2 °F 30.2 °F 87% 29.62 in 8.0 mi WNW 17.3 mph 23.0 mph 0.00 in   Overcast
10:52 PM 34.0 °F 24.2 °F 30.0 °F 85% 29.65 in 8.0 mi WNW 15.0 mph 23.0 mph 0.00 in   Overcast
11:40 PM 32.0 °F 20.1 °F 28.4 °F 87% 29.65 in 10.0 mi NW 19.6 mph 26.5 mph N/A   Overcast
11:52 PM 32.0 °F 21.6 °F 27.0 °F 82% 29.67 in 10.0 mi NW 15.0 mph 24.2 mph N/A   Overcast